Content
SEND FEEDBACK

Daily
Averages
Monthly
Summary
United States of America

BURLINGTON, NORTH CAROLINA


Home > North America > United States > North Carolina
Elevation: 638 feet     Latitude: 36 02N     Longitude: 079 28W

WEATHER
 
SELECT A DAY
Number of Records: 171,590;   Date Range: 7/1/98 - 8/30/14
 
SHARE

PRINT THIS DATA

[ ← Previous Day ]
WEATHER ALMANAC - NOVEMBER 13, 2013
[ Next Day → ]
[ °C ]   °F
Weather ElementAverageHighLow
Temperature33.3 °F44.1 °F (1:54 pm)25 °F (11:54 pm)
Dewpoint16.2 °F19.9 °F (8:54 pm)12 °F (3:54 pm)
Humidity52.4 %78 % (10:54 pm)27 % (3:54 pm)
Barometer30.49 in30.55 in (8:54 am)30.45 in (1:54 am)
Wind Speed4.6 mph12.7 mph (9:54 am)
Weather ElementAverage
Visibility10 mi
Wind DirectionSSW (187 °)

Weather ElementTotal
Precipitation---
Heating Degree Days30.5 (Base 65)
Averaged from 23 records on November 13, 2013
WEATHER CONDITIONS BREAKOUT
WIND DIRECTION BREAKOUT
WEATHER BY HOUR - NOVEMBER 13, 2013
[ °C ]   °F
Local TimeTemperatureDewpointHumidityBarometerVisibilityWind DirectionWind SpeedGust SpeedPrecipitationEventsConditions
1:54 AM28.0 °F15.1 °F58 %30.45 in10.0 miNW (320°)5.8 mphClear
2:54 AM28.9 °F14.0 °F54 %30.46 in10.0 miWNW (290°)4.6 mphClear
3:54 AM28.0 °F14.0 °F56 %30.46 in10.0 miWest (260°)3.5 mphClear
4:54 AM26.1 °F15.1 °F63 %30.47 in10.0 miWest (280°)4.6 mphClear
5:54 AM27.0 °F17.1 °F66 %30.48 in10.0 miWNW (300°)8.1 mphClear
6:54 AM28.0 °F17.1 °F63 %30.50 in10.0 miWNW (300°)3.5 mphClear
7:54 AM30.0 °F19.0 °F64 %30.52 in10.0 miNW (320°)5.8 mphClear
8:54 AM34.0 °F18.0 °F52 %30.55 in10.0 miNorth (360°)5.8 mphClear
9:54 AM37.0 °F17.1 °F44 %30.55 in10.0 miNNW (340°)12.7 mphClear
10:54 AM39.0 °F17.1 °F41 %30.55 in10.0 miNNW (340°)10.4 mphClear
11:54 AM39.9 °F15.1 °F36 %30.52 in10.0 miNNE (20°)10.4 mphClear
12:54 PM42.1 °F14.0 °F32 %30.50 in10.0 miNW (310°)9.2 mphClear
1:54 PM44.1 °F14.0 °F30 %30.48 in10.0 miNW (310°)4.6 mphClear
2:54 PM43.0 °F12.9 °F30 %30.47 in10.0 miVariable5.8 mphClear
3:54 PM44.1 °F12.0 °F27 %30.47 in10.0 miVariable3.5 mphClear
4:54 PM42.1 °F12.0 °F29 %30.47 in10.0 miWNW (300°)3.5 mphClear
5:54 PM36.0 °F15.1 °F43 %30.48 in10.0 miCalmClear
6:54 PM30.9 °F17.1 °F57 %30.49 in10.0 miCalmClear
7:54 PM30.9 °F19.0 °F61 %30.50 in10.0 miCalmClear
8:54 PM28.9 °F19.9 °F69 %30.50 in10.0 miCalmClear
9:54 PM26.1 °F19.0 °F75 %30.49 in10.0 miWSW (250°)4.6 mphClear
10:54 PM26.1 °F19.9 °F78 %30.48 in10.0 miCalmClear
11:54 PM25.0 °F19.0 °F78 %30.48 in10.0 miCalmClear
Hourly data recorded from KBUY, located miles away from Burlington, North Carolina







STORIES FROM OUR PARTNERS